KC8JWT Weather Reports


Display with metric or nautical units.
time (UTC)temp
F
wind
direction
speed
MPH
gust
MPH
rain 1hr
in
rain 24hr
in
rain mn
in
humidity
%
barometer
mb
20260507042916 53 112 0.0 0.0 0.00 0.00 0.00 59 1014.2
20260507042413 53 47 2.0 3.0 0.00 0.00 0.00 59 1014.2
20260507041908 54 35 1.0 2.0 0.00 0.00 0.00 59 1014.2
20260507041405 54 100 0.0 1.0 0.00 0.00 0.00 59 1014.0
20260507040903 54 65 2.0 2.0 0.00 0.00 0.00 58 1014.3
20260507040358 54 91 1.0 1.0 0.00 0.00 0.00 60 1014.1
20260507035854 54 93 0.0 1.0 0.00 0.72 0.72 59 1014.3
20260507035351 54 96 0.0 0.0 0.00 0.72 0.72 59 1014.3
20260507034848 54 71 1.0 1.0 0.00 0.72 0.72 59 1014.2
20260507034345 54 71 1.0 1.0 0.00 0.72 0.72 59 1014.1
20260507033843 54 18 1.0 1.0 0.00 0.72 0.72 60 1014.3
20260507033341 54 18 1.0 1.0 0.00 0.72 0.72 60 1014.4
20260507032837 0 0.0 0.0 0.00 0.00 0.00 1014.1
20260507032333 0 0.0 0.0 0.00 0.00 0.00 1014.2
20260507031830 55 93 0.0 0.0 0.00 0.72 0.72 60 1014.3
20260507031327 55 93 0.0 0.0 0.00 0.72 0.72 60 1013.9
20260507030823 55 93 0.0 0.0 0.00 0.72 0.72 60 1014.0
20260507030321 55 30 1.0 1.0 0.00 0.72 0.72 60 1014.1
20260507025818 55 101 0.0 0.0 0.00 0.72 0.72 61 1014.2
20260507025315 55 70 1.0 2.0 0.00 0.72 0.72 59 1014.4
20260507024813 55 64 1.0 1.0 0.00 0.72 0.72 60 1014.1
20260507024310 55 92 0.0 1.0 0.00 0.72 0.72 60 1014.1
20260507023806 55 112 0.0 0.0 0.00 0.72 0.72 60 1014.0
20260507023302 55 159 3.0 3.0 0.00 0.72 0.72 60 1014.1
20260507022800 55 188 1.0 2.0 0.00 0.72 0.72 59 1014.2
20260507022256 55 241 1.0 2.0 0.00 0.72 0.72 59 1013.8
20260507021752 56 67 1.0 1.0 0.00 0.72 0.72 59 1013.7
20260507021248 56 56 3.0 3.0 0.00 0.72 0.72 58 1013.5
20260507020746 56 19 3.0 3.0 0.00 0.72 0.72 58 1013.5
20260507020242 56 77 1.0 2.0 0.00 0.72 0.72 58 1013.4
20260507015740 56 77 0.0 1.0 0.00 0.72 0.72 58 1013.6
20260507015237 56 88 1.0 2.0 0.00 0.72 0.72 58 1013.2
20260507014734 56 12 3.0 5.0 0.00 0.72 0.72 57 1013.2
20260507014230 56 317 3.0 5.0 0.00 0.72 0.72 57 1013.3
20260507013727 57 316 4.0 5.0 0.00 0.72 0.72 58 1013.3
20260507013224 57 85 1.0 2.0 0.00 0.72 0.72 59 1013.2
20260507012722 57 40 2.0 2.0 0.00 0.72 0.72 60 1013.3
20260507012217 57 351 7.0 8.0 0.00 0.72 0.72 59 1013.0
20260507011715 58 71 3.0 3.0 0.00 0.72 0.72 59 1013.0
20260507011211 58 44 3.0 5.0 0.00 0.72 0.72 59 1012.9
20260507010711 58 35 3.0 3.0 0.00 0.72 0.72 59 1012.6
20260507010207 58 35 3.0 3.0 0.00 0.72 0.72 59 1012.5
20260507005705 58 13 2.0 2.0 0.00 0.72 0.72 60 1012.4
20260507005200 58 79 1.0 1.0 0.00 0.72 0.72 65 1012.4
20260507004657 58 55 1.0 1.0 0.00 0.72 0.72 63 1012.4
20260507004155 58 74 1.0 1.0 0.00 0.72 0.72 59 1012.2
20260507003651 58 290 3.0 3.0 0.00 0.72 0.72 61 1012.6
20260507003152 58 67 1.0 1.0 0.00 0.72 0.72 70 1012.3
20260507002648 58 93 0.0 0.0 0.00 0.72 0.72 68 1012.2
20260507002144 58 95 0.0 0.0 0.00 0.72 0.72 68 1012.1
20260507001641 58 106 0.0 0.0 0.00 0.72 0.72 69 1012.3
20260507001139 58 96 0.0 0.0 0.00 0.72 0.72 72 1011.8
20260507000635 59 89 0.0 0.0 0.00 0.72 0.72 75 1011.9
20260507000130 59 86 0.0 1.0 0.00 0.72 0.72 71 1011.9
20260506235628 59 75 0.0 0.0 0.00 0.72 0.72 69 1012.0
20260506235127 59 62 0.0 1.0 0.00 0.72 0.72 67 1012.0
20260506234625 59 85 0.0 1.0 0.00 0.72 0.72 67 1012.0
20260506234122 59 55 1.0 1.0 0.00 0.72 0.72 68 1011.9
20260506233619 59 46 1.0 1.0 0.00 0.72 0.72 66 1011.6
20260506233116 59 45 1.0 1.0 0.00 0.72 0.72 66 1011.7
20260506232612 60 86 0.0 0.0 0.00 0.72 0.72 64 1011.8
20260506232107 60 52 1.0 2.0 0.00 0.72 0.72 63 1012.2
20260506231605 60 83 0.0 0.0 0.00 0.72 0.72 68 1012.4
20260506231103 60 80 0.0 1.0 0.00 0.72 0.72 69 1012.5
20260506230559 60 81 0.0 1.0 0.00 0.72 0.72 68 1012.3
20260506230056 60 84 0.0 0.0 0.00 0.72 0.72 65 1012.2
20260506225553 60 87 1.0 1.0 0.00 0.72 0.72 63 1012.2
20260506225049 60 73 1.0 2.0 0.00 0.72 0.72 63 1012.0
20260506224546 60 72 1.0 1.0 0.00 0.72 0.72 61 1012.0
20260506224043 60 88 0.0 0.0 0.00 0.72 0.72 63 1012.1
20260506223539 60 62 0.0 0.0 0.00 0.72 0.72 62 1012.0
20260506223036 60 71 1.0 1.0 0.00 0.72 0.72 61 1011.9
20260506222533 61 42 1.0 2.0 0.00 0.72 0.72 61 1011.9
20260506222029 61 82 0.0 1.0 0.00 0.72 0.72 59 1011.8
20260506221526 0 0.0 0.0 0.00 0.00 0.00 1011.9
20260506221024 0 0.0 0.0 0.00 0.00 0.00 1011.9
20260506220520 0 0.0 0.0 0.00 0.00 0.00 1011.7
20260506220016 0 0.0 0.0 0.00 0.00 0.00 1011.7
20260506215513 62 137 0.0 0.0 0.00 0.72 0.72 74 1011.8
20260506215009 62 137 0.0 0.0 0.00 0.72 0.72 74 1011.5
20260506214506 62 137 0.0 0.0 0.00 0.72 0.72 74 1011.3
20260506214003 61 142 1.0 1.0 0.00 0.72 0.72 73 1011.3
20260506213501 0 0.0 0.0 0.00 0.00 0.00 1011.3
20260506212958 62 99 0.0 0.0 0.00 0.72 0.72 74 1011.5
20260506212454 62 99 0.0 0.0 0.00 0.72 0.72 74 1011.7
20260506211948 62 99 0.0 0.0 0.00 0.72 0.72 74 1011.4
20260506211445 62 149 2.0 2.0 0.00 0.72 0.72 74 1011.3
20260506210942 62 133 0.0 1.0 0.00 0.72 0.72 75 1011.5
20260506210438 61 145 0.0 1.0 0.00 0.72 0.72 76 1011.5
20260506205936 61 145 0.0 1.0 0.00 0.72 0.72 76 1011.4
20260506205432 62 107 1.0 2.0 0.00 0.72 0.72 73 1011.4
20260506204928 62 151 0.0 1.0 0.00 0.72 0.72 73 1011.2
20260506204426 62 143 0.0 0.0 0.00 0.72 0.72 73 1011.5
20260506203923 63 126 0.0 1.0 0.00 0.72 0.72 75 1011.3
20260506203420 63 126 0.0 1.0 0.00 0.72 0.72 75 1011.3
20260506202917 63 137 0.0 1.0 0.00 0.72 0.72 74 1011.4
20260506202414 63 125 0.0 0.0 0.00 0.72 0.72 75 1011.0
20260506201911 62 153 1.0 1.0 0.00 0.72 0.72 79 1011.0
20260506201409 62 112 1.0 1.0 0.00 0.72 0.72 75 1011.0
20260506200905 62 138 0.0 1.0 0.00 0.72 0.72 76 1010.8
20260506200401 63 56 1.0 2.0 0.00 0.72 0.72 74 1011.0
20260506195857 62 152 1.0 1.0 0.00 0.72 0.72 76 1011.2
20260506195355 62 153 0.0 0.0 0.00 0.72 0.72 76 1011.1
20260506194851 62 119 0.0 0.0 0.00 0.72 0.72 75 1011.1
20260506194348 62 144 0.0 1.0 0.00 0.72 0.72 77 1010.9
20260506193846 64 175 1.0 1.0 0.00 0.72 0.72 72 1010.9
20260506193342 64 172 1.0 2.0 0.00 0.72 0.72 76 1010.9
20260506192839 63 166 2.0 2.0 0.00 0.72 0.72 78 1011.0
20260506192335 63 143 0.0 1.0 0.00 0.72 0.72 79 1011.1
20260506191833 62 145 1.0 1.0 0.00 0.72 0.72 80 1011.0
20260506191329 62 157 1.0 1.0 0.00 0.72 0.72 80 1011.1
20260506190826 63 127 0.0 0.0 0.00 0.72 0.72 78 1011.2
20260506190322 63 154 0.0 1.0 0.00 0.72 0.72 80 1011.0
20260506185819 63 138 0.0 0.0 0.00 0.72 0.72 79 1011.1
20260506185316 62 144 0.0 0.0 0.00 0.72 0.72 80 1011.1
20260506184813 61 154 1.0 1.0 0.00 0.72 0.72 82 1011.2
20260506184311 61 184 1.0 2.0 0.00 0.72 0.72 83 1011.3
20260506183808 61 51 1.0 2.0 0.00 0.72 0.72 82 1011.5
20260506183303 61 157 0.0 1.0 0.00 0.72 0.72 84 1011.3
20260506182800 61 159 1.0 2.0 0.00 0.72 0.72 82 1011.4
20260506182257 62 162 1.0 2.0 0.00 0.72 0.72 83 1011.2
20260506181755 62 160 0.0 1.0 0.00 0.72 0.72 83 1011.3
20260506181253 62 146 0.0 1.0 0.00 0.72 0.72 81 1011.3
20260506180749 61 155 0.0 0.0 0.00 0.72 0.72 85 1011.3
20260506180245 60 113 0.0 1.0 0.00 0.72 0.72 85 1011.3
20260506175742 60 208 5.0 7.0 0.00 0.72 0.72 84 1011.5
20260506175239 60 141 0.0 1.0 0.00 0.72 0.72 87 1011.4
20260506174737 60 126 0.0 0.0 0.00 0.72 0.72 86 1011.4
20260506174233 60 90 1.0 1.0 0.00 0.72 0.72 85 1011.5
20260506173731 60 127 1.0 1.0 0.00 0.72 0.72 84 1011.6
20260506173227 60 140 0.0 0.0 0.00 0.72 0.72 85 1011.5
20260506172724 61 64 1.0 1.0 0.00 0.72 0.72 84 1011.4
20260506172221 60 65 1.0 1.0 0.00 0.72 0.72 87 1011.5
20260506171719 59 141 1.0 1.0 0.00 0.72 0.72 89 1011.2
20260506171216 58 124 0.0 0.0 0.00 0.72 0.72 91 1011.3
20260506170713 58 118 1.0 2.0 0.00 0.72 0.72 92 1011.3
20260506170210 56 155 0.0 1.0 0.00 0.72 0.72 96 1011.7
20260506165708 54 131 0.0 0.0 0.00 0.72 0.72 98 1011.5
20260506165205 55 144 0.0 1.0 0.00 0.72 0.72 99 1011.6
20260506164702 54 248 1.0 1.0 0.00 0.72 0.72 99 1011.7
20260506164159 55 148 1.0 2.0 0.00 0.72 0.72 99 1011.4
20260506163655 54 150 0.0 0.0 0.00 0.72 0.72 99 1011.8
20260506163150 54 117 0.0 1.0 0.00 0.72 0.72 99 1011.8
20260506162647 53 142 0.0 1.0 0.00 0.72 0.72 99 1011.8
20260506162144 53 149 0.0 1.0 0.00 0.72 0.72 99 1011.6
20260506161641 52 123 0.0 0.0 0.00 0.72 0.72 99 1011.5
20260506161138 52 153 1.0 1.0 0.00 0.72 0.72 99 1011.8
20260506160636 52 114 1.0 1.0 0.00 0.72 0.72 99 1011.9
20260506160132 52 130 1.0 2.0 0.00 0.72 0.72 99 1011.5
20260506155631 52 120 0.0 0.0 0.00 0.72 0.72 99 1011.5
20260506155128 51 120 1.0 1.0 0.00 0.72 0.72 99 1011.0
20260506153230 51 113 0.0 0.0 0.00 0.72 0.72 99 1011.1
20260506152727 51 145 0.0 0.0 0.00 0.72 0.72 99 1010.7
20260506152224 51 146 1.0 1.0 0.00 0.72 0.72 99 1010.9
20260506151723 51 189 3.0 5.0 0.00 0.72 0.72 99 1010.6
20260506151219 51 139 0.0 1.0 0.00 0.72 0.72 99 1010.7
20260506150716 51 294 4.0 6.0 0.00 0.72 0.72 99 1010.7
20260506150213 50 134 0.0 0.0 0.00 0.72 0.72 99 1010.5
20260506145710 51 124 2.0 2.0 0.00 0.72 0.72 99 1010.2
20260506145206 50 139 0.0 0.0 0.00 0.72 0.72 99 1010.3
20260506144704 51 114 0.0 0.0 0.00 0.72 0.72 99 1010.3
20260506144200 51 139 1.0 1.0 0.00 0.72 0.72 99 1010.1
20260506143658 50 127 0.0 0.0 0.00 0.72 0.72 99 1010.0
20260506143156 51 95 0.0 0.0 0.00 0.72 0.72 99 1009.8
20260506142654 51 138 0.0 0.0 0.00 0.72 0.72 99 1009.9
20260506142152 51 142 0.0 0.0 0.00 0.72 0.72 99 1009.9
20260506141649 50 140 0.0 0.0 0.00 0.72 0.72 99 1009.9
20260506141147 50 169 3.0 3.0 0.00 0.72 0.72 99 1010.1
20260506140644 50 161 4.0 7.0 0.00 0.72 0.72 99 1010.0
20260506140142 50 147 0.0 1.0 0.00 0.72 0.72 99 1009.6
20260506135639 50 105 1.0 2.0 0.00 0.72 0.72 99 1009.6
20260506135135 50 202 2.0 2.0 0.00 0.72 0.72 99 1009.5
20260506134632 50 236 3.0 5.0 0.05 0.72 0.72 99 1009.0
20260506134127 50 200 1.0 1.0 0.00 0.71 0.71 99 1009.1
20260506133625 51 202 4.0 5.0 0.07 0.71 0.71 99 1008.9
20260506133122 51 149 2.0 3.0 0.07 0.71 0.71 99 1008.7
20260506132619 51 129 0.0 1.0 0.00 0.70 0.70 99 1008.6
20260506132116 52 151 4.0 6.0 0.00 0.70 0.70 99 1008.4
20260506131613 52 149 3.0 5.0 0.05 0.70 0.70 99 1008.5
20260506131109 54 131 1.0 3.0 0.05 0.70 0.70 99 1008.2
20260506130607 59 71 2.0 2.0 0.00 0.69 0.69 99 1007.9
20260506130104 59 144 2.0 3.0 0.00 0.69 0.69 99 1007.6
20260506125602 59 225 5.0 6.0 0.00 0.69 0.69 99 1007.4
20260506125100 59 164 3.0 5.0 0.00 0.69 0.69 99 1007.5
20260506124557 59 173 3.0 3.0 0.00 0.69 0.69 99 1007.5
20260506124055 59 149 2.0 2.0 0.00 0.69 0.69 99 1007.3
20260506123553 59 159 0.0 1.0 0.00 0.69 0.69 99 1007.0
20260506123051 58 142 0.0 0.0 0.00 0.69 0.69 99 1007.3
20260506122547 58 167 1.0 2.0 0.00 0.69 0.69 99 1007.3
20260506122045 58 150 1.0 1.0 0.00 0.69 0.69 99 1007.3
20260506121542 58 144 1.0 1.0 0.00 0.69 0.69 99 1007.1
20260506121038 58 152 0.0 0.0 0.00 0.69 0.69 99 1007.1
20260506120536 58 158 1.0 2.0 0.00 0.69 0.69 99 1007.5
20260506120033 58 143 0.0 0.0 0.00 0.69 0.69 99 1007.1
20260506115531 58 134 0.0 0.0 0.00 0.69 0.69 99 1006.8
20260506115030 58 144 0.0 0.0 0.00 0.69 0.69 99 1006.9
20260506114527 58 147 0.0 1.0 0.00 0.69 0.69 99 1007.2
20260506114025 58 187 4.0 5.0 0.00 0.69 0.69 99 1007.1
20260506113523 58 148 0.0 1.0 0.00 0.69 0.69 99 1007.0
20260506113020 58 150 0.0 0.0 0.00 0.69 0.69 99 1006.8
20260506112516 58 150 1.0 2.0 0.00 0.69 0.69 99 1007.1
20260506112014 58 180 0.0 2.0 0.00 0.69 0.69 99 1006.8
20260506111512 58 142 0.0 0.0 0.00 0.69 0.69 99 1006.6
20260506111008 58 146 0.0 0.0 0.00 0.69 0.69 99 1006.7
20260506110506 58 147 0.0 0.0 0.00 0.69 0.69 99 1006.8
20260506110003 58 147 1.0 1.0 0.00 0.69 0.69 99 1006.7
20260506105459 58 152 1.0 1.0 0.00 0.69 0.69 99 1006.8
20260506104956 57 114 0.0 0.0 0.00 0.69 0.69 99 1006.5
20260506104454 57 125 0.0 0.0 0.00 0.69 0.69 99 1006.4
20260506103952 57 150 0.0 1.0 0.07 0.69 0.69 99 1006.5
20260506103449 57 139 1.0 1.0 0.07 0.69 0.69 99 1006.5
20260506102946 57 132 1.0 2.0 0.07 0.68 0.68 99 1006.4
20260506102444 57 124 0.0 0.0 0.07 0.68 0.68 99 1006.4
20260506101941 57 144 0.0 1.0 0.00 0.67 0.67 99 1006.5
20260506101437 57 145 1.0 2.0 0.05 0.67 0.67 99 1006.3
20260506100935 57 128 0.0 0.0 0.12 0.67 0.67 99 1006.5
20260506100433 57 96 1.0 1.0 0.07 0.66 0.66 99 1006.2
20260506095931 57 135 0.0 0.0 0.00 0.65 0.65 99 1006.5
20260506095429 57 135 0.0 0.0 0.05 0.65 0.65 99 1006.5
20260506094925 57 135 0.0 0.0 0.05 0.65 0.65 99 1006.7
20260506094424 57 141 0.0 1.0 0.31 0.64 0.64 99 1006.5
20260506093921 57 148 0.0 0.0 0.31 0.64 0.64 99 1006.8
20260506093419 0 0.0 0.0 0.00 0.00 0.00 1006.7
20260506092916 0 0.0 0.0 0.00 0.00 0.00 1007.0
20260506092414 57 152 0.0 0.0 0.00 0.59 0.59 99 1006.8
20260506091910 57 152 0.0 0.0 0.05 0.59 0.59 99 1006.9
20260506091409 57 152 0.0 0.0 0.05 0.59 0.59 99 1006.8
20260506090905 57 152 0.0 0.0 0.42 0.58 0.58 99 1006.7
20260506090403 57 152 0.0 0.0 0.42 0.58 0.58 99 1006.7
20260506085859 0 0.0 0.0 0.00 0.00 0.00 1006.8
20260506085356 57 154 0.0 0.0 0.00 0.51 0.51 99 1006.9
20260506084852 57 154 0.0 0.0 0.00 0.51 0.51 99 1006.8
20260506084349 57 152 0.0 0.0 0.07 0.51 0.51 99 1006.8
20260506083846 57 152 0.0 0.0 0.35 0.51 0.51 99 1006.8
20260506083343 57 152 0.0 0.0 0.28 0.50 0.50 99 1006.8
20260506082841 57 141 0.0 0.0 0.07 0.45 0.45 99 1006.9
20260506082337 57 142 0.0 0.0 0.42 0.45 0.45 99 1006.7
20260506081833 58 149 0.0 0.0 0.35 0.44 0.44 99 1007.1
20260506081332 58 106 2.0 2.0 0.07 0.38 0.38 99 1006.8
20260506080829 58 106 2.0 2.0 0.85 0.38 0.38 99 1006.9
20260506080325 58 127 0.0 1.0 0.85 0.38 0.38 99 1006.9
20260506073309 59 229 4.0 5.0 0.52 0.17 0.17 99 1007.2
20260506072806 59 221 3.0 5.0 0.54 0.14 0.14 99 1007.6
20260506072305 59 210 3.0 7.0 0.31 0.08 0.08 98 1007.5
20260506071801 59 147 3.0 3.0 0.12 0.05 0.05 97 1007.7
20260506071259 59 199 5.0 6.0 0.00 0.03 0.03 97 1007.0
20260506070756 59 166 2.0 5.0 0.00 0.03 0.03 96 1006.8
20260506070253 60 162 4.0 5.0 0.00 0.03 0.03 95 1006.7
20260506062230 59 138 0.0 0.0 0.00 0.01 0.01 99 1006.8
20260506061726 59 138 0.0 0.0 0.00 0.01 0.01 99 1006.5
20260506061223 59 138 0.0 0.0 0.00 0.01 0.01 99 1006.6
20260506060722 59 138 0.0 0.0 0.00 0.01 0.01 99 1006.9
20260506060218 59 138 0.0 0.0 0.00 0.01 0.01 99 1006.6
20260506051151 60 142 0.0 0.0 0.00 0.01 0.01 97 1007.6
20260506050649 60 145 0.0 0.0 0.00 0.01 0.01 97 1007.9
20260506050146 59 146 0.0 1.0 0.07 0.01 0.01 97 1007.8
20260506044637 59 146 0.0 0.0 0.00 0.00 0.00 97 1008.0
20260506044133 60 146 0.0 0.0 0.00 0.00 0.00 98 1008.1
20260506043630 60 146 0.0 0.0 0.00 0.00 0.00 98 1008.1
20260506043129 60 146 0.0 0.0 0.00 0.00 0.00 98 1008.0